1504918800.65,45004,15.38,73570.8,3.13,-24.71,-24.77,0,*7F
1504918801.87,45005,15.38,73570.5,3.17,-24.57,-24.67,0,*7F
1504918803.09,45006,15.38,73564.5,3.15,-24.61,-24.57,0,*78
1504918804.31,45007,15.38,73564.5,3.15,-24.57,-24.61,0,*79
1504918805.54,45008,15.38,73566.3,3.13,-24.61,-24.71,0,*74
1504918806.8,45009,15.38,73566.8,3.13,-24.71,-24.71,0,*74
1504918808.03,45010,15.38,73568.8,3.13,-24.87,-24.77,0,*73
1504918809.24,45011,15.38,73570.3,3.11,-24.93,-24.97,0,*7B
1504918810.48,45012,15.38,73572.5,3.11,-24.77,-24.83,0,*77
1504918811.76,45013,15.38,73572.0,3.11,-24.83,-24.83,0,*7D
1504918813.01,45014,15.38,73570.3,3.11,-24.83,-24.93,0,*7B
1504918814.26,45015,15.38,73568.8,3.11,-24.67,-24.77,0,*7A
1504918815.5,45016,15.38,73566.0,3.11,-24.61,-24.67,0,*7E
1504918816.71,45017,15.38,73564.5,3.09,-24.47,-24.47,0,*70
1504918817.93,45018,15.38,73556.0,3.11,-24.61,-24.61,0,*76
1504918819.16,45019,15.38,73556.3,3.11,-24.51,-24.61,0,*74
1504918820.36,45020,15.38,73564.0,3.09,-24.51,-24.51,0,*74
1504918821.56,45021,15.38,73568.5,3.09,-24.35,-24.47,0,*70
1504918822.8,45022,15.38,73574.8,3.09,-24.15,-24.15,0,*76
1504918824.09,45023,15.38,73572.5,3.11,-24.21,-24.21,0,*7E
1504918825.31,45024,15.38,73578.5,3.11,-24.61,-24.61,0,*79
1504918826.51,45025,15.38,73586.5,3.09,-24.51,-24.61,0,*72
1504918827.78,45026,15.38,73560.3,3.11,-23.99,-23.99,0,*7B
1504918829.01,45027,15.38,73550.8,3.13,-23.95,-24.05,0,*76
1504918830.21,45028,15.38,73550.3,3.13,-24.31,-24.31,0,*77
1504918831.44,45029,15.38,73548.0,3.13,-24.41,-24.47,0,*70
1504918832.65,45030,15.38,73540.3,3.13,-24.47,-24.31,0,*7F
1504918833.88,45031,15.38,73538.8,3.13,-24.41,-24.57,0,*78
1504918835.1,45032,15.38,73536.0,3.15,-24.31,-24.31,0,*7A
1504918836.33,45033,15.38,73548.5,3.13,-24.41,-24.47,0,*7B
1504918837.59,45034,15.38,73558.0,3.13,-24.41,-24.41,0,*7A
1504918838.8,45035,15.38,73560.3,3.13,-24.47,-24.47,0,*7B
1504918839.99,45036,15.38,73562.8,3.13,-24.57,-24.57,0,*78
1504918841.23,45037,15.38,73566.5,3.13,-24.71,-24.77,0,*7F
1504918842.43,45038,15.38,73566.0,3.13,-24.61,-24.61,0,*76
1504918843.63,45039,15.38,73568.8,3.13,-24.61,-24.61,0,*77
1504918844.83,45040,15.38,73574.0,3.13,-24.57,-24.57,0,*79
1504918846.04,45041,15.38,73568.5,3.13,-24.47,-24.47,0,*78
1504918847.25,45042,15.38,73570.0,3.13,-24.47,-24.61,0,*7F
1504918848.48,45043,15.38,73564.5,3.13,-24.61,-24.71,0,*7B
1504918849.7,45044,15.38,73562.3,3.11,-24.61,-24.61,0,*7F
1504918850.95,45045,15.38,73558.0,3.11,-24.67,-24.77,0,*7F
1504918852.2,45046,15.38,73570.0,3.11,-24.77,-24.83,0,*76
1504918853.39,45047,15.38,73572.0,3.09,-24.77,-24.93,0,*7F
1504918854.64,45048,15.38,73574.0,3.11,-24.83,-24.93,0,*72
1504918855.87,45049,15.38,73574.3,3.11,-24.51,-24.47,0,*75
1504918857.08,45050,15.38,73572.0,3.09,-24.51,-24.51,0,*73
1504918858.28,45051,15.38,73562.3,3.09,-24.35,-24.31,0,*76
1504918859.53,45052,15.38,73574.3,3.13,-24.25,-24.15,0,*79
1504918860.73,45053,15.38,73574.8,3.13,-24.47,-24.47,0,*7B
1504918861.96,45054,15.38,73574.8,3.11,-24.47,-24.35,0,*7B
1504918863.16,45055,15.38,73574.0,3.09,-24.35,-24.31,0,*72
1504918864.4,45056,15.38,73564.3,3.11,-24.61,-24.67,0,*7A
1504918865.61,45057,15.38,73556.5,3.09,-24.51,-24.61,0,*77
1504918866.84,45058,15.38,73558.3,3.13,-24.31,-24.25,0,*75
1504918868.06,45059,15.38,73564.8,3.11,-24.35,-24.35,0,*73
1504918869.28,45060,15.38,73554.0,3.11,-24.35,-24.35,0,*79
1504918870.51,45061,15.38,73564.8,3.11,-24.47,-24.35,0,*7D
1504918871.73,45062,15.38,73570.3,3.11,-24.35,-24.35,0,*7B
1504918872.96,45063,15.38,73570.0,3.11,-24.35,-24.51,0,*78
1504918874.23,45064,15.38,73566.3,3.11,-24.15,-24.21,0,*7A
1504918875.44,45065,15.38,73566.0,3.13,-24.31,-24.31,0,*7E
1504918876.66,45066,15.38,73566.8,3.11,-24.35,-24.31,0,*7B
1504918877.92,45067,15.38,73570.5,3.13,-24.41,-24.41,0,*7C
1504918879.12,45068,15.38,73564.8,3.13,-24.57,-24.57,0,*73
1504918880.34,45069,15.38,73566.5,3.11,-24.77,-24.77,0,*70
1504918881.55,45070,15.38,73566.8,3.11,-24.93,-24.97,0,*7C
1504918882.78,45071,15.38,73566.3,3.11,-24.77,-24.97,0,*77
1504918884.03,45072,15.38,73566.8,3.11,-24.77,-24.83,0,*71
1504918885.27,45073,15.38,73570.8,3.09,-24.67,-24.67,0,*72
1504918886.49,45074,15.38,73570.8,3.11,-24.61,-24.61,0,*7C
1504918887.71,45075,15.38,73572.3,3.09,-24.61,-24.83,0,*78
1504918888.94,45076,15.38,73572.0,3.09,-24.67,-24.77,0,*76
1504918890.18,45077,15.38,73570.3,3.09,-24.67,-24.83,0,*7C
1504918891.43,45078,15.38,73572.3,3.09,-24.67,-24.83,0,*73
1504918892.65,45079,15.38,73574.3,3.09,-24.77,-24.83,0,*73
1504918893.91,45080,15.38,73570.8,3.07,-24.83,-24.97,0,*75
1504918895.17,45081,15.38,73570.3,3.07,-24.71,-24.97,0,*79
1504918896.45,45082,15.38,73570.8,3.07,-24.71,-24.67,0,*75
1504918897.72,45083,15.38,73570.5,3.07,-24.67,-24.67,0,*73
1504918898.95,45084,15.38,73570.0,3.07,-24.57,-24.51,0,*72
1504918900.2,45085,15.38,73566.8,3.07,-24.57,-24.67,0,*76
1504918901.47,45086,15.38,73572.3,3.07,-24.67,-24.71,0,*71
1504918902.74,45087,15.38,73572.0,3.05,-24.71,-24.71,0,*75
1504918904.01,45088,15.38,73570.5,3.07,-24.67,-24.67,0,*78
1504918905.25,45089,15.38,73570.3,3.05,-24.41,-24.51,0,*7A
1504918906.46,45090,15.38,73582.0,3.05,-24.51,-24.51,0,*73
1504918907.68,45091,15.38,73580.5,3.05,-24.57,-24.67,0,*71
1504918908.9,45092,15.38,73578.8,3.05,-24.57,-24.67,0,*72
1504918910.17,45093,15.38,73578.8,3.05,-24.71,-24.83,0,*7D
1504918911.45,45094,15.38,73580.8,3.07,-24.71,-24.83,0,*78
1504918912.72,45095,15.38,73580.5,3.05,-24.71,-24.71,0,*76
1504918913.97,45096,15.38,73582.8,3.05,-24.67,-24.67,0,*75
1504918915.19,45097,15.38,73578.0,3.05,-24.57,-24.67,0,*77
1504918916.42,45098,15.38,73574.0,3.05,-24.57,-24.67,0,*78
1504918917.67,45099,15.38,73572.3,3.05,-24.67,-24.71,0,*7D
1504918918.9,45100,15.38,73570.3,3.01,-24.67,-24.77,0,*7E
1504918920.15,45101,15.38,73566.5,2.97,-24.67,-24.61,0,*76
1504918921.36,45102,15.38,73570.5,3.01,-24.51,-24.61,0,*7E
1504918922.57,45103,15.38,73568.0,3.01,-24.51,-24.51,0,*7C
1504918923.77,45104,15.38,73574.8,3.01,-24.61,-24.51,0,*78
1504918924.97,45105,15.38,73570.8,3.01,-24.51,-24.51,0,*7A
1504918926.18,45106,15.38,73570.0,3.01,-24.61,-24.61,0,*79
1504918927.38,45107,15.38,73568.5,3.01,-24.61,-24.47,0,*7C
1504918928.58,45108,15.38,73570.5,3.01,-24.61,-24.51,0,*74
1504918929.81,45109,15.38,73572.5,3.01,-24.51,-24.67,0,*73
1504918931.08,45110,15.38,73574.0,2.97,-24.67,-24.67,0,*70
1504918932.32,45111,15.38,73574.8,3.01,-24.67,-24.67,0,*7F
1504918933.58,45112,15.38,73572.0,2.97,-24.67,-24.77,0,*73
1504918934.79,45113,15.38,73578.5,3.01,-24.51,-24.61,0,*7E
1504918936.03,45114,15.38,73580.0,3.01,-24.67,-24.67,0,*7A
1504918937.29,45115,15.38,73584.0,2.97,-24.67,-24.77,0,*74
1504918938.57,45116,15.38,73586.5,2.97,-24.83,-24.83,0,*76
1504918939.79,45117,15.38,73580.3,3.01,-24.83,-24.97,0,*7C
1504918941.05,45118,15.38,73580.0,2.97,-24.83,-24.97,0,*7D
1504918942.3,45119,15.38,73584.0,2.97,-24.83,-24.93,0,*78
1504918943.56,45120,15.38,73586.3,2.97,-24.83,-24.93,0,*72
1504918944.81,45121,15.38,73586.0,2.97,-24.83,-24.77,0,*79
1504918946.07,45122,15.38,73584.5,2.97,-24.67,-24.77,0,*70
1504918947.32,45123,15.38,73578.5,2.97,-24.83,-24.93,0,*71
1504918948.58,45124,15.38,73576.3,2.95,-24.71,-24.83,0,*78
1504918949.8,45125,15.38,73576.8,2.95,-24.67,-24.57,0,*77
1504918951.04,45126,15.38,73568.3,2.93,-24.57,-24.67,0,*72
1504918952.29,45127,15.31,73564.8,2.93,-24.57,-24.67,0,*73
1504918953.48,45128,15.38,73564.8,2.95,-24.57,-24.51,0,*7F
1504918954.69,45129,15.38,73566.0,2.95,-24.51,-24.57,0,*7E
1504918955.91,45130,15.38,73576.8,2.93,-24.57,-24.57,0,*76
1504918957.15,45131,15.38,73574.5,2.95,-24.67,-24.67,0,*71
1504918958.38,45132,15.38,73564.8,2.93,-24.51,-24.51,0,*74
1504918959.63,45133,15.38,73568.8,2.95,-24.41,-24.41,0,*73
1504918960.86,45134,15.38,73574.0,2.95,-24.41,-24.57,0,*73
1504918962.11,45135,15.38,73574.5,2.93,-24.41,-24.51,0,*72
1504918963.31,45136,15.38,73574.0,2.95,-24.35,-24.35,0,*76
1504918964.54,45137,15.38,73576.8,2.95,-24.51,-24.41,0,*76
1504918965.76,45138,15.38,73568.3,2.93,-24.51,-24.57,0,*78
1504918966.97,45139,15.38,73568.5,2.95,-24.51,-24.51,0,*79
1504918968.17,45140,15.38,73568.8,2.95,-24.51,-24.57,0,*71
1504918969.4,45141,15.38,73570.3,2.95,-24.41,-24.51,0,*77
1504918970.59,45142,15.38,73572.5,2.95,-24.35,-24.35,0,*75
1504918971.82,45143,15.38,73576.0,2.95,-24.51,-24.41,0,*75
1504918973.05,45144,15.38,73576.0,2.93,-24.51,-24.51,0,*75
1504918974.3,45145,15.38,73572.3,2.95,-24.67,-24.71,0,*75
1504918975.58,45146,15.38,73578.5,2.93,-24.71,-24.83,0,*7A
1504918976.87,45147,15.38,73576.5,2.93,-24.71,-24.71,0,*76
1504918978.14,45148,15.38,73568.3,2.93,-24.71,-24.67,0,*7E
1504918979.43,45149,15.38,73572.3,2.93,-24.71,-24.71,0,*78
1504918980.67,45150,15.38,73578.8,2.95,-24.67,-24.67,0,*76
1504918981.95,45151,15.38,73584.3,2.93,-24.83,-24.71,0,*7C
1504918983.2,45152,15.38,73590.3,2.93,-24.83,-24.97,0,*77
1504918984.47,45153,15.38,73586.0,2.93,-24.87,-24.87,0,*73
1504918985.75,45154,15.38,73590.8,2.93,-24.71,-24.83,0,*79
1504918987.03,45155,15.38,73584.0,2.93,-24.83,-24.87,0,*71
1504918988.3,45156,15.38,73574.5,2.93,-24.67,-24.83,0,*7C
1504918989.55,45157,15.38,73578.5,2.93,-24.57,-24.71,0,*73
1504918990.82,45158,15.38,73580.5,2.93,-24.67,-24.71,0,*7F
1504918992.05,45159,15.38,73580.0,2.93,-24.51,-24.57,0,*7F
1504918993.27,45160,15.38,73582.5,2.91,-24.77,-24.67,0,*70
1504918994.54,45161,15.38,73584.3,2.91,-24.71,-24.71,0,*70
1504918995.79,45162,15.38,73590.8,2.91,-24.87,-24.87,0,*73
1504918996.99,45163,15.38,73588.0,2.91,-24.77,-24.93,0,*78
1504918998.22,45164,15.38,73584.8,2.91,-24.77,-24.87,0,*7A
1504918999.48,45165,15.38,73586.5,2.89,-24.83,-24.93,0,*7C
1504919000.73,45166,15.38,73572.8,2.89,-24.83,-24.93,0,*7F
1504919001.93,45167,15.38,73570.8,2.91,-24.61,-24.61,0,*76
1504919003.14,45168,15.38,73570.0,2.91,-24.47,-24.57,0,*78
1504919004.34,45169,15.38,73576.5,2.91,-24.57,-24.57,0,*78
1504919005.55,45170,15.38,73578.3,2.91,-24.47,-24.47,0,*70
1504919006.78,45171,15.38,73578.8,2.91,-24.41,-24.47,0,*77
1504919008.04,45172,15.38,73578.5,2.91,-24.41,-24.41,0,*72
1504919009.27,45173,15.38,73578.8,2.89,-24.47,-24.47,0,*7A
1504919010.51,45174,15.38,73580.0,2.91,-24.41,-24.47,0,*72
1504919011.74,45175,15.38,73574.8,2.89,-24.47,-24.51,0,*7B
1504919012.97,45176,15.38,73586.5,2.91,-24.41,-24.47,0,*70
1504919014.26,45177,15.38,73584.3,2.89,-24.41,-24.41,0,*7E
1504919015.49,45178,15.38,73586.0,2.91,-24.25,-24.35,0,*79
1504919016.75,45179,15.38,73576.0,2.89,-24.31,-24.41,0,*77
1504919017.98,45180,15.38,73582.8,2.91,-24.25,-24.35,0,*7E
1504919019.21,45181,15.38,73586.3,2.91,-24.41,-24.47,0,*78
1504919020.41,45182,15.38,73588.8,2.91,-24.61,-24.57,0,*78
1504919021.62,45183,15.38,73586.3,2.91,-24.47,-24.57,0,*7D
1504919022.82,45184,15.38,73586.5,2.91,-24.47,-24.57,0,*7A
1504919024.08,45185,15.38,73586.5,2.89,-24.41,-24.47,0,*75
1504919025.34,45186,15.38,73584.3,2.91,-24.21,-24.41,0,*7F
1504919026.57,45187,15.38,73586.8,2.91,-24.35,-24.41,0,*7B
1504919027.8,45188,15.38,73590.5,2.89,-24.47,-24.51,0,*79
1504919029.01,45189,15.38,73590.3,2.91,-24.47,-24.47,0,*76
1504919030.25,45190,15.38,73592.3,2.91,-24.47,-24.41,0,*78
1504919031.45,45191,15.38,73590.5,2.91,-24.47,-24.57,0,*7E
1504919032.66,45192,15.38,73576.3,2.91,-24.47,-24.57,0,*7D
1504919033.89,45193,15.38,73568.0,2.91,-24.41,-24.57,0,*7A
1504919035.12,45194,15.38,73574.5,2.91,-24.41,-24.57,0,*7D
1504919036.38,45195,15.38,73570.3,2.91,-24.25,-24.25,0,*7B
1504919037.64,45196,15.38,73570.5,2.91,-24.11,-24.25,0,*7F
1504919038.9,45197,15.38,73580.3,2.91,-24.25,-24.41,0,*7B
1504919040.13,45198,15.38,73566.8,2.91,-24.35,-24.25,0,*77
1504919041.36,45199,15.38,73572.5,2.91,-24.21,-24.35,0,*72
1504919042.59,45200,15.38,73564.8,2.91,-24.25,-24.35,0,*75
1504919043.8,45201,15.38,73566.5,2.91,-24.47,-24.47,0,*75
1504919045.03,45202,15.38,73568.0,2.91,-24.41,-24.57,0,*71
1504919046.23,45203,15.38,73572.0,2.91,-24.57,-24.61,0,*72
1504919047.44,45204,15.38,73568.3,2.91,-24.47,-24.57,0,*71
1504919048.66,45205,15.38,73572.5,2.93,-24.35,-24.35,0,*73
1504919049.91,45206,15.38,73576.5,2.91,-24.41,-24.41,0,*72
1504919051.14,45207,15.38,73572.8,2.93,-24.51,-24.57,0,*77
1504919052.39,45208,15.38,73578.5,2.93,-24.41,-24.51,0,*7F
1504919053.6,45209,15.38,73580.8,2.91,-24.47,-24.61,0,*79
1504919054.86,45210,15.38,73582.3,2.91,-24.41,-24.41,0,*75
1504919056.06,45211,15.38,73582.5,2.91,-24.35,-24.47,0,*71
1504919057.29,45212,15.38,73588.0,2.91,-24.35,-24.41,0,*74
1504919058.57,45213,15.38,73584.0,2.93,-24.41,-24.41,0,*74
1504919059.8,45214,15.38,73584.5,2.93,-24.51,-24.51,0,*73
1504919061.05,45215,15.38,73578.0,2.91,-24.41,-24.41,0,*70
1504919062.27,45216,15.38,73582.5,2.91,-23.89,-24.11,0,*75
1504919063.55,45217,15.38,73588.5,2.93,-24.15,-24.21,0,*77
1504919064.8,45218,15.38,73584.3,2.93,-24.35,-24.41,0,*7C
1504919066.03,45219,15.38,73584.0,2.93,-24.51,-24.57,0,*78
1504919067.3,45220,15.38,73584.8,2.93,-24.67,-24.71,0,*73
1504919068.58,45221,15.38,73586.5,2.93,-24.71,-24.71,0,*75
1504919069.81,45222,15.38,73584.5,2.93,-24.57,-24.51,0,*70
1504919071.04,45223,15.38,73574.8,2.93,-24.51,-24.51,0,*77
1504919072.3,45224,15.38,73572.0,2.91,-24.71,-24.71,0,*72
1504919073.58,45225,15.38,73568.8,2.93,-24.71,-24.71,0,*71
1504919074.85,45226,15.38,73570.5,2.91,-24.71,-24.87,0,*79
1504919076.07,45227,15.38,73572.0,2.91,-24.87,-24.93,0,*74
1504919077.29,45228,15.38,73574.0,2.89,-24.93,-25.09,0,*75
1504919078.55,45229,15.38,73568.8,2.89,-24.83,-24.93,0,*77
1504919079.78,45230,15.38,73572.0,2.91,-24.41,-24.57,0,*70
1504919080.98,45231,15.38,73578.3,2.91,-24.61,-24.61,0,*76
1504919082.23,45232,15.38,73580.8,2.93,-24.57,-24.67,0,*74
1504919083.46,45233,15.38,73586.5,2.91,-24.71,-24.61,0,*75
1504919084.7,45234,15.38,73586.3,2.91,-24.71,-24.61,0,*72
1504919085.98,45235,15.38,73584.8,2.93,-24.67,-24.71,0,*77
1504919087.23,45236,15.38,73586.5,2.89,-24.83,-24.93,0,*79
1504919088.48,45237,15.38,73590.3,2.91,-24.87,-24.87,0,*70
1504919089.71,45238,15.38,73592.5,2.91,-24.87,-24.93,0,*7A
1504919090.92,45239,15.38,73586.8,2.91,-24.93,-25.03,0,*76
1504919092.18,45240,15.38,73582.5,2.89,-24.67,-24.61,0,*7F
1504919093.38,45241,15.38,73582.5,2.91,-24.77,-24.77,0,*71
1504919094.6,45242,15.38,73584.3,2.89,-24.93,-24.97,0,*7F
1504919095.82,45243,15.31,73584.3,2.89,-24.93,-24.97,0,*7E
1504919097.05,45244,15.38,73590.8,2.91,-24.77,-24.87,0,*7B
1504919098.3,45245,15.38,73584.8,2.91,-24.87,-24.87,0,*75
1504919099.52,45246,15.38,73586.3,2.89,-24.93,-24.97,0,*7B
1504919100.77,45247,15.38,73584.0,2.89,-24.83,-24.93,0,*7F
1504919102.03,45248,15.38,73590.5,2.89,-24.83,-24.93,0,*70
1504919103.28,45249,15.38,73586.8,2.89,-24.83,-24.97,0,*75
1504919104.54,45250,15.38,73584.5,2.89,-24.83,-24.93,0,*79
1504919105.76,45251,15.38,73582.3,2.89,-24.97,-25.13,0,*74
1504919106.99,45252,15.38,73586.3,2.89,-24.93,-25.09,0,*78
1504919108.22,45253,15.38,73580.3,2.89,-25.09,-25.13,0,*70
1504919109.42,45254,15.38,73580.8,2.87,-25.09,-25.13,0,*79
1504919110.67,45255,15.38,73576.5,2.85,-25.03,-25.19,0,*7A
1504919111.9,45256,15.38,73578.5,2.87,-24.83,-24.93,0,*71
1504919113.15,45257,15.38,73576.0,2.85,-24.87,-24.97,0,*72
1504919114.4,45258,15.38,73574.3,2.85,-24.97,-25.03,0,*70
1504919115.59,45259,15.38,73574.5,2.87,-24.93,-24.97,0,*7B
1504919116.82,45260,15.38,73572.3,2.87,-24.83,-24.97,0,*70
1504919118.04,45261,15.38,73568.5,2.85,-24.97,-25.13,0,*7B
1504919119.27,45262,15.38,73570.5,2.87,-24.87,-24.97,0,*76
1504919120.52,45263,15.38,73564.8,2.85,-24.87,-24.97,0,*75
1504919121.8,45264,15.38,73558.8,2.85,-24.87,-24.71,0,*7A
1504919123.07,45265,15.38,73558.0,2.85,-24.67,-24.67,0,*72
1504919124.28,45266,15.38,73566.0,2.87,-24.47,-24.51,0,*74
1504919125.56,45267,15.31,73560.5,2.85,-24.67,-24.71,0,*77
1504919126.79,45268,15.38,73554.8,2.87,-24.67,-24.77,0,*7C
1504919127.99,45269,15.38,73552.5,2.87,-24.57,-24.51,0,*7A
1504919129.22,45270,15.38,73558.5,2.85,-24.51,-24.51,0,*76
1504919130.45,45271,15.38,73560.8,2.85,-24.57,-24.57,0,*77
1504919131.73,45272,15.38,73556.8,2.85,-24.67,-24.71,0,*73
1504919132.96,45273,15.31,73550.3,2.87,-24.41,-24.51,0,*76
1504919134.2,45274,15.38,73548.8,2.87,-24.41,-24.47,0,*76
1504919135.43,45275,15.38,73552.8,2.87,-24.41,-24.47,0,*77
1504919136.64,45276,15.38,73562.0,2.87,-24.47,-24.61,0,*76
1504919137.87,45277,15.38,73570.5,2.87,-24.51,-24.67,0,*76
1504919139.09,45278,15.31,73564.3,2.87,-24.67,-24.77,0,*7D
1504919140.35,45279,15.38,73560.5,2.85,-24.57,-24.71,0,*7B
1504919141.56,45280,15.38,73556.3,2.87,-24.47,-24.47,0,*7B
1504919142.79,45281,15.38,73562.0,2.87,-24.41,-24.47,0,*7C
1504919144.05,45282,15.38,73568.0,2.85,-24.21,-24.31,0,*7A
1504919145.27,45283,15.38,73566.3,2.87,-24.11,-24.31,0,*7A
1504919146.53,45284,15.31,73564.8,2.87,-24.15,-24.25,0,*7C
1504919147.76,45285,15.38,73572.0,2.87,-24.25,-24.31,0,*7B
1504919148.99,45286,15.38,73572.3,2.87,-24.31,-24.41,0,*7A
1504919150.22,45287,15.31,73560.8,2.85,-24.31,-24.35,0,*7A
1504919151.48,45288,15.38,73564.3,2.87,-24.25,-24.41,0,*71
1504919152.71,45289,15.38,73564.3,2.87,-24.31,-24.41,0,*75
1504919153.92,45290,15.38,73570.5,2.87,-24.31,-24.47,0,*7B
1504919155.15,45291,15.38,73566.5,2.87,-24.25,-24.31,0,*7E
1504919156.41,45292,15.31,73574.5,2.87,-24.41,-24.41,0,*78
1504919157.67,45293,15.38,73570.0,2.85,-24.51,-24.67,0,*7E
1504919158.9,45294,15.38,73564.0,2.87,-24.41,-24.47,0,*78
1504919160.13,45295,15.38,73568.8,2.87,-24.25,-24.47,0,*7B
1504919161.36,45296,15.38,73574.0,2.87,-24.41,-24.47,0,*7A
1504919162.57,45297,15.38,73582.3,2.87,-24.31,-24.31,0,*7D
1504919163.81,45298,15.38,73584.0,2.85,-24.47,-24.47,0,*70
1504919165.04,45299,15.38,73578.8,2.87,-24.47,-24.41,0,*75
1504919166.26,45300,15.31,73586.0,2.87,-24.15,-24.35,0,*70
1504919167.52,45301,15.31,73582.8,2.85,-24.21,-24.31,0,*70
1504919168.77,45302,15.38,73580.8,2.85,-24.15,-24.31,0,*74
1504919170.03,45303,15.38,73582.3,2.85,-24.21,-24.47,0,*73
1504919171.28,45304,15.38,73594.0,2.85,-24.15,-24.35,0,*76
1504919172.51,45305,15.38,73598.8,2.87,-24.31,-24.41,0,*70
1504919173.74,45306,15.38,73578.0,2.87,-24.11,-24.31,0,*76
1504919174.99,45307,15.31,73576.5,2.87,-24.15,-24.25,0,*76
1504919176.19,45308,15.31,73584.5,2.87,-24.31,-24.47,0,*7B
1504919177.43,45309,15.31,73588.8,2.87,-24.31,-24.41,0,*7C
1504919178.66,45310,15.38,73592.5,2.87,-24.31,-24.41,0,*74
1504919179.89,45311,15.38,73584.5,2.87,-24.31,-24.41,0,*75
1504919181.12,45312,15.38,73576.3,2.85,-24.51,-24.57,0,*75
1504919182.38,45313,15.38,73572.0,2.89,-24.51,-24.67,0,*7B
1504919183.6,45314,15.38,73578.0,2.87,-24.61,-24.67,0,*71
1504919184.84,45315,15.38,73578.5,2.85,-24.47,-24.51,0,*73
1504919186.07,45316,15.38,73578.5,2.85,-24.35,-24.51,0,*75
1504919187.33,45317,15.38,73580.0,2.87,-24.25,-24.41,0,*76
1504919188.56,45318,15.38,73578.3,2.87,-24.31,-24.41,0,*7C
1504919189.79,45319,15.38,73582.3,2.87,-24.25,-24.31,0,*7F
1504919191.07,45320,15.38,73582.0,2.85,-24.15,-24.21,0,*75
1504919192.31,45321,15.38,73582.3,2.85,-24.31,-24.35,0,*77
1504919193.54,45322,15.38,73586.0,2.85,-24.47,-24.51,0,*77
1504919194.77,45323,15.38,73586.8,2.85,-24.35,-24.35,0,*71
1504919196.0,45324,15.31,73588.0,2.87,-24.41,-24.47,0,*72
1504919197.23,45325,15.31,73584.3,2.87,-24.41,-24.47,0,*73
1504919198.48,45326,15.38,73584.3,2.87,-24.11,-24.15,0,*72
1504919199.72,45327,15.38,73580.8,2.87,-24.15,-24.15,0,*77
1504919200.93,45328,15.38,73584.5,2.87,-24.31,-24.31,0,*78
1504919202.14,45329,15.31,73582.5,2.87,-24.51,-24.51,0,*79
1504919203.37,45330,15.31,73580.8,2.85,-24.51,-24.57,0,*75
1504919204.6,45331,15.31,73580.0,2.87,-24.41,-24.47,0,*76
1504919205.83,45332,15.31,73576.5,2.85,-24.35,-24.51,0,*73
1504919207.06,45333,15.38,73574.8,2.85,-24.35,-24.51,0,*72
1504919208.32,45334,15.38,73570.5,2.87,-24.25,-24.41,0,*77
1504919209.56,45335,15.31,73568.0,2.85,-24.31,-24.47,0,*77
1504919210.79,45336,15.38,73576.5,2.85,-24.47,-24.51,0,*72
1504919212.0,45337,15.31,73576.3,2.87,-24.51,-24.61,0,*75
1504919213.21,45338,15.38,73580.8,2.87,-24.51,-24.61,0,*7A
1504919214.45,45339,15.38,73582.0,2.85,-24.51,-24.61,0,*79
1504919215.68,45340,15.31,73576.8,2.85,-24.51,-24.51,0,*74
1504919216.91,45341,15.31,73578.0,2.87,-24.41,-24.51,0,*76
1504919218.14,45342,15.38,73578.5,2.85,-24.51,-24.57,0,*70
1504919219.39,45343,15.31,73576.0,2.85,-24.57,-24.67,0,*74
1504919220.64,45344,15.38,73580.5,2.85,-24.57,-24.67,0,*73
1504919221.88,45345,15.38,73576.5,2.85,-24.47,-24.57,0,*70
1504919223.11,45346,15.38,73574.8,2.85,-24.47,-24.51,0,*75
1504919224.32,45347,15.38,73578.0,2.87,-24.47,-24.51,0,*76
1504919225.55,45348,15.31,73572.8,2.85,-24.57,-24.57,0,*7C
1504919226.78,45349,15.38,73578.3,2.87,-24.51,-24.67,0,*7A
1504919228.03,45350,15.31,73582.3,2.85,-24.57,-24.71,0,*71
1504919229.26,45351,15.38,73580.0,2.85,-24.35,-24.51,0,*76
1504919230.52,45352,15.38,73578.5,2.81,-24.41,-24.57,0,*74
1504919231.76,45353,15.31,73574.3,2.83,-24.21,-24.51,0,*77
1504919232.97,45354,15.38,73574.5,2.83,-24.47,-24.51,0,*70
1504919234.17,45355,15.38,73574.0,2.83,-24.31,-24.35,0,*72
1504919235.38,45356,15.38,73572.8,2.83,-24.31,-24.47,0,*74
1504919236.59,45357,15.38,73576.0,2.83,-24.35,-24.47,0,*71
1504919237.79,45358,15.31,73584.5,2.83,-24.31,-24.51,0,*7D
1504919239.02,45359,15.31,73586.3,2.83,-24.21,-24.35,0,*7F
1504919240.28,45360,15.31,73580.8,2.81,-24.05,-24.25,0,*70
1504919241.54,45361,15.38,73580.3,2.83,-23.99,-24.21,0,*75
1504919242.75,45362,15.31,73578.3,2.83,-24.31,-24.47,0,*73
1504919243.98,45363,15.31,73582.0,2.83,-24.21,-24.35,0,*76
1504919245.24,45364,15.31,73586.0,2.81,-24.25,-24.51,0,*75
1504919246.47,45365,15.38,73584.3,2.83,-24.15,-24.47,0,*72
1504919247.73,45366,15.31,73584.8,2.85,-24.21,-24.47,0,*70
1504919248.96,45367,15.38,73590.8,2.85,-24.35,-24.47,0,*74
1504919250.19,45368,15.31,73590.0,2.85,-24.51,-24.57,0,*78
1504919251.42,45369,15.38,73590.0,2.83,-24.21,-24.35,0,*7C
1504919252.65,45370,15.31,73576.3,2.83,-24.05,-24.21,0,*77
1504919253.9,45371,15.31,73586.3,2.85,-24.15,-24.35,0,*74
1504919255.15,45372,15.31,73588.8,2.85,-24.15,-24.35,0,*77
1504919256.36,45373,15.31,73590.0,2.83,-24.35,-24.47,0,*77
1504919257.57,45374,15.38,73590.5,2.83,-24.47,-24.47,0,*75
1504919258.77,45375,15.31,73588.5,2.83,-24.35,-24.51,0,*76
1504919259.98,45376,15.38,73592.3,2.83,-24.35,-24.51,0,*75
1504919261.18,45377,15.31,73588.5,2.83,-24.51,-24.57,0,*70
1504919262.39,45378,15.38,73594.0,2.83,-24.47,-24.51,0,*7E
1504919263.62,45379,15.38,73590.0,2.81,-24.35,-24.57,0,*7E
1504919264.83,45380,15.31,73592.5,2.83,-24.35,-24.51,0,*7C
1504919266.09,45381,15.38,73596.5,2.81,-24.41,-24.61,0,*7F
1504919267.33,45382,15.31,73596.3,2.81,-24.35,-24.57,0,*7A
1504919268.56,45383,15.31,73600.3,2.81,-24.35,-24.57,0,*7B
1504919269.77,45384,15.31,73598.8,2.83,-24.47,-24.57,0,*7B
1504919270.97,45385,15.31,73600.0,2.83,-24.51,-24.51,0,*7B
1504919272.24,45386,15.38,73598.8,2.81,-24.25,-24.51,0,*79
1504919273.52,45387,15.38,73600.3,2.81,-24.11,-24.25,0,*7C
1504919274.81,45388,15.31,73594.5,2.81,-24.21,-24.41,0,*72
1504919276.03,45389,15.38,73596.5,2.83,-24.15,-24.31,0,*71
1504919277.3,45390,15.31,73592.5,2.81,-24.25,-24.51,0,*7E
1504919278.53,45391,15.31,73598.0,2.81,-24.35,-24.51,0,*7E
1504919279.81,45392,15.38,73600.8,2.81,-24.11,-24.41,0,*7A
1504919281.09,45393,15.38,73598.0,2.81,-23.53,-23.65,0,*7B
1504919282.38,45394,15.31,73590.8,2.81,-23.95,-24.21,0,*71
1504919283.64,45395,15.31,73588.3,2.81,-24.05,-24.25,0,*7A
1504919284.9,45396,15.31,73598.0,2.81,-24.11,-24.35,0,*7D
1504919286.15,45397,15.31,73598.0,2.81,-24.11,-24.51,0,*7E
1504919287.38,45398,15.38,73590.0,2.83,-24.11,-24.31,0,*75
1504919288.67,45399,15.31,73588.3,2.81,-24.11,-24.21,0,*77
1504919289.92,45400,15.31,73586.5,2.81,-24.11,-24.35,0,*75
1504919291.18,45401,15.31,73590.8,2.85,-24.21,-24.47,0,*76
1504919292.41,45402,15.31,73580.3,2.83,-23.95,-24.05,0,*7D
1504919293.63,45403,15.31,73588.8,2.83,-24.15,-24.35,0,*70
1504919294.86,45404,15.31,73594.8,2.83,-24.15,-24.31,0,*73
1504919296.08,45405,15.31,73588.3,2.83,-24.15,-24.35,0,*76
1504919297.33,45406,15.31,73584.5,2.83,-24.15,-24.21,0,*70
1504919298.58,45407,15.31,73592.3,2.83,-23.99,-24.15,0,*75
1504919299.85,45408,15.31,73580.8,2.85,-23.99,-24.15,0,*7C
1504919301.13,45409,15.31,73590.0,2.85,-23.99,-24.15,0,*7D
1504919302.38,45410,15.31,73576.5,2.85,-24.05,-24.15,0,*77